Wind_Speed
89 86 86 82 78 75 75 71 70 69 65 81 79 82 81 73 68 69 68 67 63 61 56 55 50 47 44 43 41 40 40 38 40 40 36 37 35 34 33 34 33 33 32 30 32
93 89 89 86 82 76 78 76 72 72 70 72 77 80 81 83 75 69 70 70 65 61 57 57 54 51 51 47 43 38 44 43 43 45 42 40 38 39 38 37 36 34 34 33 35
98 94 92 91 85 81 81 80 78 73 73 70 77 78 80 82 78 73 72 69 67 63 66 57 55 50 51 46 46 43 37 42 47 48 46 44 42 42 41 41 39 37 38 36 38
101 100 96 94 90 86 83 85 80 76 76 74 74 76 79 81 79 79 76 73 68 65 68 63 56 54 52 51 48 41 41 38 50 50 49 49 45 45 44 45 44 41 38 37 40
103 103 101 98 95 90 85 88 85 81 78 78 77 75 74 78 76 82 82 81 72 72 67 68 75 55 50 54 55 50 46 46 39 52 52 51 49 48 46 48 48 46 44 42 44
106 104 103 103 101 95 89 90 91 88 83 79 75 76 75 71 77 77 82 81 80 76 73 69 71 67 68 61 62 59 53 49 48 40 55 54 53 51 50 52 49 47 49 48 48
107 107 105 104 102 101 97 92 96 93 89 84 80 78 76 75 71 73 79 81 83 83 79 71 70 68 64 64 62 62 58 54 50 49 39 57 55 58 54 54 53 53 55 53 53
113 111 110 106 106 103 102 99 97 99 95 90 86 81 78 75 73 74 75 77 78 84 81 74 73 74 70 64 61 59 58 57 56 55 53 44 49 62 58 57 57 58 59 58 56
118 116 112 109 107 106 105 103 101 102 101 95 91 86 82 77 78 80 74 74 77 77 82 81 77 74 72 71 70 66 61 61 64 58 56 53 47 49 54 58 60 60 61 60 58
121 120 117 113 109 108 108 107 105 104 101 99 97 90 85 83 80 80 81 75 73 76 80 80 81 81 79 78 79 76 69 66 65 67 61 59 60 57 50 46 47 57 63 62 59
128 124 121 117 114 112 112 113 109 104 99 98 96 96 92 90 86 83 83 83 78 74 75 78 81 83 89 86 81 79 76 72 71 69 67 63 60 63 62 56 57 55 52 51 51
133 128 124 122 118 117 116 112 110 103 102 101 99 100 98 97 95 89 87 87 84 79 77 75 77 87 86 81 81 79 79 78 72 71 72 70 65 66 63 60 61 63 64 60 53
131 131 128 125 123 122 118 115 111 110 110 106 103 106 104 100 99 96 93 90 88 84 80 78 81 80 80 81 79 79 81 78 77 76 75 74 73 65 67 64 63 64 65 62 60
133 132 131 129 129 127 121 119 116 115 116 111 106 105 100 98 96 94 93 92 88 89 84 82 79 82 82 81 83 81 82 80 78 78 77 75 72 76 73 64 63 64 67 65 65
137 133 133 131 129 129 124 122 120 121 121 115 111 109 105 100 96 97 96 94 93 91 88 87 83 81 81 85 83 81 85 82 79 80 78 75 75 71 77 81 80 78 75 72 70
136 136 134 134 133 133 129 126 126 126 126 117 113 109 107 102 99 99 96 92 93 91 90 90 89 86 83 85 85 83 85 87 85 84 77 77 79 70 75 77 79 81 79 79 80
130 136 136 133 134 136 132 132 133 134 128 117 112 111 112 108 104 100 98 96 95 93 92 93 93 92 90 88 87 87 90 90 89 86 79 81 83 76 80 83 82 81 81 82 83
122 130 136 135 136 138 140 139 139 133 126 116 115 116 116 113 110 106 104 101 98 94 93 93 92 94 93 92 92 91 92 92 90 87 85 83 81 80 82 86 88 89 87 85 84
117 121 130 133 138 142 142 144 142 130 124 118 120 120 117 114 112 112 107 103 102 100 98 97 95 94 96 96 95 96 93 93 91 91 90 86 86 87 85 86 87 89 93 93 90
111 116 119 128 135 141 145 146 140 135 130 126 123 120 117 115 114 113 110 107 107 105 104 101 101 98 98 99 97 98 100 99 96 92 91 91 90 91 92 92 91 92 92 92 92
108 113 116 120 133 142 144 145 141 139 134 129 124 121 117 115 115 115 114 113 113 113 109 104 103 102 102 99 101 102 102 104 104 100 95 91 91 93 92 94 95 95 92 92 93
106 111 118 121 127 133 141 143 143 140 136 132 128 124 121 120 120 119 115 115 116 116 112 110 108 107 106 106 106 106 104 104 104 103 102 98 94 92 94 96 97 98 99 100 101
100 114 118 122 122 125 131 137 137 138 135 131 128 125 123 121 121 120 118 118 117 115 112 112 111 110 110 108 108 106 104 106 107 107 103 102 96 97 98 97 103 106 104 105 104
96 112 118 120 118 118 120 124 129 132 134 130 128 126 125 126 123 121 119 119 118 118 116 115 112 110 111 109 108 109 110 109 109 109 105 106 103 100 100 102 105 107 108 107 105
89 105 114 117 118 116 117 117 117 122 126 126 126 124 122 120 120 121 118 117 117 117 116 114 111 112 112 109 108 107 107 108 106 107 108 107 108 106 106 107 111 110 110 109 106
83 97 108 111 110 108 108 109 109 108 108 110 113 116 117 116 114 116 118 117 116 115 114 114 113 112 109 107 102 98 94 97 96 96 100 105 108 111 114 112 110 111 111 108 106
76 88 96 104 103 105 107 105 103 101 100 101 104 108 110 112 114 116 118 115 111 110 109 110 108 108 106 102 98 92 90 90 88 86 88 91 95 106 111 111 111 110 109 107 105
Wind_Direction
226 227 229 228 228 226 224 225 225 225 224 222 220 221 222 219 219 218 219 221 214 232 232 243 234 232 237 241 248 253 243 237 230 234 234 235 237 236 237 238 234 234 237 240 246
221 223 226 226 227 226 223 224 224 224 224 223 222 223 224 220 219 220 220 223 224 218 228 236 239 237 237 235 238 249 253 238 232 233 233 236 237 241 238 240 237 236 239 242 248
220 219 222 224 225 226 223 223 223 224 224 224 224 225 224 223 221 222 221 222 225 230 223 223 237 236 237 234 236 237 251 249 230 232 232 235 238 242 242 243 242 239 239 245 248
220 220 219 221 222 225 225 223 222 224 224 223 224 225 228 227 226 226 224 224 226 230 230 222 235 243 241 238 236 237 243 250 239 232 233 235 236 241 242 244 245 244 244 246 250
218 220 220 219 219 222 223 223 223 222 224 225 225 225 227 228 228 227 228 226 227 230 228 232 230 229 234 235 235 233 237 238 254 239 234 238 238 239 241 244 244 245 246 247 252
217 219 219 221 218 218 220 221 223 224 224 224 225 227 227 229 229 228 230 229 230 232 232 233 235 236 238 236 238 234 235 240 240 256 240 237 241 241 240 245 244 247 249 249 251
216 217 218 219 220 219 218 218 222 223 223 225 226 227 227 227 230 230 230 232 233 234 232 235 235 232 234 237 240 235 233 235 240 240 249 246 239 245 243 244 246 247 250 251 253
214 217 217 218 219 221 220 219 218 223 223 222 224 226 229 227 225 231 233 232 234 233 233 233 235 233 233 238 235 238 242 238 240 241 239 241 252 243 244 246 248 250 253 254 257
213 216 215 216 217 220 221 223 220 220 221 222 223 223 227 230 228 226 231 235 234 234 234 235 232 233 233 233 237 244 243 244 242 242 242 241 245 252 255 254 251 252 252 254 257
213 215 215 216 217 219 221 221 224 224 220 223 221 223 226 228 230 229 229 228 234 233 233 237 236 232 233 234 237 242 245 248 247 244 245 244 243 248 250 254 257 259 254 256 259
214 213 216 215 217 218 220 222 222 224 228 224 224 222 224 227 226 229 230 231 229 232 234 235 237 237 235 236 239 241 246 246 243 243 243 243 245 249 251 253 254 255 259 263 267
215 212 215 216 217 219 219 221 223 223 223 229 225 226 223 225 227 228 230 230 232 230 231 234 236 239 241 243 245 246 246 244 242 243 244 243 246 247 248 251 254 257 259 259 261
214 214 214 216 217 219 220 220 221 223 224 224 226 226 224 225 226 227 229 230 231 233 231 232 236 240 241 241 244 245 247 246 245 245 244 246 246 246 251 252 256 259 259 258 259
215 213 215 215 218 219 219 222 220 223 223 223 225 228 232 229 230 229 230 232 232 233 233 232 233 237 241 242 244 246 247 249 246 247 248 247 248 249 247 247 254 258 260 257 259
215 213 215 215 219 220 219 222 222 223 223 222 224 227 229 231 233 231 232 232 234 235 234 234 235 236 240 242 245 247 250 253 252 251 249 249 249 252 253 256 259 252 251 253 254
216 214 215 214 219 221 221 221 223 223 224 221 223 227 230 233 234 234 234 235 236 237 237 238 237 238 239 241 244 247 248 251 252 252 254 250 251 249 251 252 257 258 257 262 266
217 215 215 215 218 222 221 223 224 223 223 220 223 225 228 230 234 236 237 236 236 236 237 238 240 239 240 242 244 245 246 248 250 254 254 253 254 252 255 255 255 255 260 263 264
215 216 216 215 218 221 223 223 225 225 223 221 222 225 228 229 232 234 236 238 239 240 241 240 241 241 241 242 243 245 246 250 252 253 254 255 257 256 256 257 256 255 256 259 262
214 215 216 215 219 222 222 224 224 225 226 223 225 225 227 230 233 235 236 238 240 240 240 242 242 242 242 243 245 245 247 249 250 251 253 255 256 256 256 256 256 257 259 259 261
212 214 215 215 220 222 223 224 224 224 226 225 225 227 228 230 234 236 237 238 240 241 242 243 244 245 245 245 247 248 249 250 251 251 252 253 254 255 257 258 258 260 262 264 264
211 213 214 214 219 222 224 225 224 224 223 226 227 228 229 231 233 235 237 238 240 241 242 244 246 246 247 249 248 248 249 251 251 251 252 253 253 254 256 258 259 260 260 261 261
209 210 214 215 218 221 224 225 225 224 225 225 226 229 230 231 233 235 237 239 241 243 244 245 246 247 249 250 250 250 250 251 253 255 254 254 254 255 255 255 257 258 258 259 262
207 209 213 216 218 221 223 226 227 226 226 225 228 230 232 234 236 238 239 241 243 245 246 248 248 248 248 249 251 252 252 252 252 252 253 254 256 256 257 257 258 258 260 262 264
205 209 212 217 218 220 223 226 228 227 227 227 228 228 232 234 236 238 241 243 244 246 247 248 249 250 251 251 251 251 252 254 256 255 256 255 256 256 257 258 259 260 261 264 266
206 208 210 215 218 220 222 225 228 229 229 229 229 229 231 234 237 239 240 242 244 246 248 249 249 250 252 253 253 254 256 256 257 258 256 256 255 257 258 258 258 260 262 264 267
207 210 211 213 217 220 225 227 228 230 231 232 232 232 233 235 237 237 238 240 242 244 246 249 250 252 254 255 255 256 258 259 259 257 256 256 256 256 256 257 260 261 262 263 264
203 211 211 212 214 217 222 226 227 230 231 233 233 233 233 233 234 237 239 241 242 245 247 250 251 252 253 255 256 257 258 256 256 257 257 257 255 255 256 259 261 263 262 262 264
Height
10579 10592 10604 10615 10626 10637 10647 10656 10664 10673 10680 10689 10697 10706 10714 10721 10730 10739 10746 10753 10756 10768 10774 10779 10784 10790 10795 10800 10805 10810 10814 10818 10821 10821 10825 10825 10827 10829 10831 10832 10835 10837 10838 10840 10840
10558 10572 10586 10598 10611 10622 10633 10642 10651 10660 10669 10676 10685 10693 10702 10711 10721 10729 10736 10745 10751 10754 10763 10770 10775 10782 10787 10792 10797 10802 10805 10810 10813 10814 10817 10819 10821 10823 10826 10827 10830 10832 10833 10835 10834
10539 10551 10566 10581 10594 10607 10617 10628 10638 10647 10657 10665 10673 10681 10690 10699 10711 10719 10727 10735 10742 10747 10753 10758 10765 10772 10779 10784 10789 10794 10797 10801 10804 10806 10810 10813 10815 10816 10820 10822 10824 10827 10828 10830 10829
10520 10534 10547 10562 10577 10590 10602 10613 10624 10634 10644 10652 10662 10670 10679 10690 10702 10709 10716 10723 10730 10737 10743 10748 10757 10762 10768 10775 10781 10785 10788 10792 10795 10798 10802 10805 10809 10809 10813 10814 10817 10821 10823 10824 10823
10499 10516 10531 10543 10558 10572 10586 10598 10610 10620 10630 10640 10649 10659 10668 10679 10690 10696 10704 10712 10718 10725 10732 10738 10744 10752 10758 10765 10770 10776 10779 10784 10787 10790 10795 10797 10801 10803 10804 10805 10809 10813 10815 10818 10817
10476 10496 10511 10527 10539 10553 10569 10582 10594 10605 10617 10627 10637 10648 10658 10667 10675 10685 10692 10700 10707 10714 10721 10728 10736 10742 10748 10753 10759 10766 10770 10776 10780 10782 10786 10790 10792 10795 10796 10796 10802 10806 10807 10809 10810
10459 10474 10492 10508 10524 10536 10549 10564 10577 10589 10601 10613 10625 10635 10646 10651 10663 10671 10678 10686 10694 10702 10710 10717 10724 10731 10739 10744 10751 10755 10761 10766 10771 10773 10777 10779 10785 10782 10788 10791 10793 10796 10796 10800 10802
10438 10452 10470 10489 10505 10520 10532 10545 10558 10571 10584 10598 10610 10622 10633 10642 10652 10657 10665 10673 10680 10688 10698 10706 10713 10721 10728 10735 10739 10744 10751 10758 10759 10761 10768 10771 10776 10769 10780 10782 10783 10785 10787 10789 10794
10416 10430 10451 10468 10486 10502 10516 10530 10540 10551 10565 10580 10597 10609 10620 10630 10636 10645 10654 10660 10667 10675 10684 10691 10701 10708 10717 10722 10727 10734 10741 10744 10748 10753 10759 10763 10765 10763 10769 10772 10774 10775 10776 10779 10783
10396 10412 10429 10450 10467 10483 10496 10509 10520 10533 10552 10566 10578 10595 10609 10612 10623 10630 10640 10648 10653 10662 10670 10679 10688 10696 10702 10705 10713 10720 10728 10735 10739 10742 10749 10754 10755 10754 10760 10762 10763 10765 10764 10767 10774
10375 10391 10411 10430 10447 10461 10474 10484 10502 10523 10546 10558 10572 10578 10586 10595 10605 10613 10622 10631 10641 10649 10658 10668 10677 10681 10680 10692 10704 10711 10718 10721 10724 10730 10737 10742 10746 10744 10747 10752 10750 10750 10753 10759 10765
10353 10374 10393 10411 10426 10439 10451 10473 10494 10517 10525 10537 10550 10558 10568 10577 10586 10597 10608 10618 10626 10635 10646 10657 10664 10662 10675 10686 10693 10698 10704 10707 10711 10718 10725 10728 10735 10733 10736 10739 10739 10740 10744 10747 10751
10335 10358 10375 10392 10406 10414 10438 10456 10473 10489 10499 10514 10525 10531 10545 10559 10570 10582 10592 10603 10614 10627 10636 10644 10648 10656 10665 10673 10680 10685 10690 10694 10701 10706 10711 10717 10725 10724 10726 10729 10728 10729 10729 10734 10735
10314 10338 10356 10371 10380 10394 10422 10435 10453 10462 10473 10495 10511 10519 10537 10550 10560 10573 10582 10592 10603 10612 10622 10633 10640 10646 10652 10661 10667 10671 10674 10682 10687 10692 10701 10705 10715 10713 10712 10715 10718 10716 10715 10718 10721
10291 10315 10333 10353 10371 10380 10409 10417 10430 10439 10443 10475 10494 10504 10518 10532 10548 10555 10564 10577 10588 10597 10611 10616 10626 10634 10644 10644 10652 10659 10660 10667 10675 10680 10687 10695 10698 10705 10702 10703 10704 10701 10699 10699 10703
10268 10292 10312 10330 10347 10360 10382 10395 10402 10408 10418 10457 10480 10498 10508 10522 10529 10537 10552 10564 10572 10588 10598 10607 10613 10621 10627 10630 10637 10645 10647 10649 10656 10663 10676 10680 10681 10701 10687 10689 10690 10688 10687 10689 10689
10245 10270 10292 10315 10335 10342 10361 10368 10368 10375 10407 10451 10472 10484 10489 10502 10510 10522 10535 10546 10554 10566 10579 10586 10594 10603 10610 10615 10624 10631 10629 10631 10639 10649 10664 10664 10665 10686 10677 10674 10673 10673 10674 10674 10674
10224 10246 10273 10298 10305 10319 10331 10339 10344 10370 10405 10444 10455 10461 10470 10483 10494 10505 10516 10532 10543 10554 10565 10573 10581 10587 10594 10597 10604 10608 10614 10622 10629 10638 10645 10650 10657 10663 10662 10658 10657 10656 10657 10657 10658
10207 10229 10253 10281 10283 10290 10307 10310 10330 10373 10398 10425 10431 10441 10456 10471 10482 10490 10506 10516 10523 10533 10541 10550 10560 10567 10575 10579 10587 10596 10603 10602 10612 10621 10628 10635 10643 10642 10643 10642 10643 10642 10638 10639 10643
10192 10212 10235 10256 10263 10270 10274 10291 10322 10351 10373 10392 10411 10428 10445 10459 10467 10476 10487 10502 10505 10513 10520 10531 10540 10551 10556 10564 10574 10582 10580 10588 10597 10603 10611 10618 10623 10621 10624 10627 10628 10623 10623 10625 10624
10175 10197 10214 10232 10231 10239 10253 10276 10307 10329 10351 10371 10397 10414 10432 10443 10450 10456 10465 10475 10482 10490 10502 10517 10523 10533 10539 10552 10555 10557 10564 10568 10572 10582 10593 10600 10603 10607 10608 10608 10608 10607 10608 10606 10601
10160 10182 10190 10202 10209 10223 10241 10259 10285 10307 10333 10358 10378 10395 10410 10416 10425 10435 10451 10457 10462 10468 10484 10492 10504 10514 10523 10529 10535 10540 10547 10551 10558 10568 10571 10576 10585 10590 10590 10590 10589 10588 10586 10583 10581
10147 10160 10168 10178 10197 10214 10232 10247 10268 10292 10316 10343 10363 10383 10395 10403 10412 10424 10434 10437 10448 10456 10468 10474 10483 10492 10501 10511 10519 10526 10528 10529 10534 10539 10552 10553 10568 10568 10570 10570 10566 10564 10563 10561 10564
10127 10136 10150 10164 10188 10204 10221 10235 10252 10274 10293 10321 10344 10361 10368 10381 10396 10407 10418 10424 10430 10435 10444 10452 10465 10475 10482 10491 10496 10503 10507 10507 10513 10526 10537 10538 10541 10545 10546 10547 10543 10539 10538 10542 10547
10113 10123 10142 10158 10171 10191 10205 10222 10240 10258 10281 10309 10325 10346 10358 10370 10384 10393 10399 10404 10411 10418 10425 10435 10444 10451 10457 10470 10476 10483 10487 10489 10498 10503 10508 10515 10516 10519 10521 10518 10512 10518 10521 10525 10530
10105 10115 10130 10151 10170 10186 10201 10215 10235 10252 10272 10295 10319 10332 10346 10361 10372 10372 10370 10377 10386 10397 10408 10411 10425 10432 10440 10449 10458 10464 10469 10473 10479 10480 10484 10486 10494 10490 10486 10490 10495 10494 10501 10506 10504
10097 10105 10125 10145 10166 10177 10187 10208 10230 10246 10262 10276 10287 10303 10319 10331 10338 10343 10351 10365 10379 10386 10393 10398 10408 10413 10423 10429 10437 10451 10455 10454 10455 10458 10458 10465 10467 10463 10470 10469 10474 10480 10479 10479 10482